Location: *
(47.7167°N, 1.7333°W)
Time: 02:42:42
(UTC+00:00)

Cosmos 1833 Rocket - Pass Details

Date: 09 April 2020
Orbit: 834 x 838 km, 71.0° (Epoch: 26 May)

Event Time Altitude Azimuth Distance (km) Brightness Sun altitude
Exits shadow 20:39:21 19° 80° (E) 1,912 4.1 -17.8°
Drops below altitude 10° 20:41:57 10° 54° (NE) 2,459 4.9 -18.1°
Sets 20:44:57 0° 39° (NE) 3,397 5.8 -18.5°
